• In Uzbekistan
  • List of Countries
  • For 7 days
  • Water Temperature
  • Satellite Maps
  • Weather Map
  • Weather Widgets
  • user-avatar
    Login

    Hourly Weather Artashat

    Today, 17 January, Tuesday

    Time Temperature Precipitation Wind Pressure Humidity
    00:00 -13°C° 0 mm 1 mps 596 mmHg 82%
    01:00 -13°C° 0 mm 1 mps 597 mmHg 80%
    02:00 -13°C° 0 mm 1 mps 597 mmHg 79%
    03:00 -13°C° 0 mm 1 mps 597 mmHg 77%
    04:00 -13°C° 0 mm 1 mps 597 mmHg 76%
    05:00 -12°C° 0 mm 1 mps 597 mmHg 75%
    06:00 -12°C° 0 mm 1 mps 597 mmHg 74%
    07:00 -11°C° 0 mm 1 mps 598 mmHg 72%
    08:00 -9°C° 0 mm 1 mps 599 mmHg 70%
    09:00 -8°C° 0 mm 1 mps 600 mmHg 68%
    10:00 -6°C° 0 mm 1 mps 600 mmHg 68%
    11:00 -3°C° 0 mm 1 mps 601 mmHg 68%
    12:00 -1°C° 0 mm 1 mps 601 mmHg 68%
    13:00 -1°C° 0 mm 1 mps 601 mmHg 70%
    14:00 -2°C° 0 mm 1 mps 601 mmHg 72%
    15:00 -2°C° 0 mm 1 mps 600 mmHg 74%
    16:00 -6°C° 0 mm 1 mps 599 mmHg 77%
    17:00 -9°C° 0 mm 1 mps 598 mmHg 81%
    18:00 -12°C° 0 mm 1 mps 596 mmHg 84%
    19:00 -12°C° 0 mm 1 mps 596 mmHg 83%
    20:00 -12°C° 0 mm 1 mps 596 mmHg 82%
    21:00 -12°C° 0 mm 1 mps 596 mmHg 81%
    22:00 -12°C° 0 mm 1 mps 596 mmHg 80%
    23:00 -12°C° 0 mm 1 mps 596 mmHg 79%

    Tomorrow, 18 January, Wednesday

    Time Temperature Precipitation Wind Pressure Humidity
    00:00 -12°C° 0 mm 1 mps 596 mmHg 78%
    01:00 -12°C° 0 mm 1 mps 596 mmHg 77%
    02:00 -12°C° 0 mm 1 mps 596 mmHg 77%
    03:00 -12°C° 0 mm 1 mps 596 mmHg 76%
    04:00 -12°C° 0 mm 1 mps 596 mmHg 76%
    05:00 -12°C° 0 mm 1 mps 596 mmHg 75%
    06:00 -12°C° 0 mm 1 mps 596 mmHg 74%
    07:00 -10°C° 0 mm 1 mps 597 mmHg 72%
    08:00 -8°C° 0 mm 1 mps 598 mmHg 70%
    09:00 -7°C° 0 mm 1 mps 599 mmHg 68%
    10:00 -4°C° 0 mm 1 mps 599 mmHg 67%
    11:00 -2°C° 0 mm 1 mps 600 mmHg 66%
    12:00 0°C° 0 mm 1 mps 600 mmHg 65%
    13:00 -1°C° 0 mm 1 mps 600 mmHg 68%
    14:00 -1°C° 0 mm 1 mps 600 mmHg 70%
    15:00 -1°C° 0 mm 1 mps 600 mmHg 73%
    16:00 -4°C° 0 mm 1 mps 598 mmHg 76%
    17:00 -8°C° 0 mm 1 mps 597 mmHg 79%
    18:00 -11°C° 0 mm 1 mps 596 mmHg 82%
    19:00 -11°C° 0 mm 1 mps 596 mmHg 80%
    20:00 -11°C° 0 mm 1 mps 596 mmHg 79%
    21:00 -11°C° 0 mm 1 mps 596 mmHg 77%
    22:00 -11°C° 0 mm 1 mps 596 mmHg 75%
    23:00 -12°C° 0 mm 1 mps 596 mmHg 74%

    Day after tomorrow, 19 January, Thursday

    Time Temperature Precipitation Wind Pressure Humidity
    00:00 -12°C° 0 mm 1 mps 596 mmHg 72%
    01:00 -12°C° 0 mm 1 mps 596 mmHg 71%
    02:00 -12°C° 0 mm 1 mps 597 mmHg 70%
    03:00 -12°C° 0 mm 1 mps 597 mmHg 69%
    04:00 -12°C° 0 mm 1 mps 597 mmHg 69%
    05:00 -12°C° 0 mm 1 mps 597 mmHg 69%
    06:00 -12°C° 0 mm 1 mps 597 mmHg 69%
    07:00 -10°C° 0 mm 1 mps 598 mmHg 68%
    08:00 -9°C° 0 mm 1 mps 599 mmHg 67%
    09:00 -8°C° 0 mm 1 mps 600 mmHg 66%
    10:00 -6°C° 0 mm 1 mps 600 mmHg 65%
    11:00 -3°C° 0 mm 1 mps 601 mmHg 65%
    12:00 -1°C° 0 mm 1 mps 601 mmHg 65%
    13:00 -1°C° 0 mm 1 mps 601 mmHg 68%
    14:00 -3°C° 0 mm 0 mps 600 mmHg 71%
    15:00 -3°C° 0 mm 0 mps 600 mmHg 73%
    16:00 -6°C° 0 mm 0 mps 598 mmHg 77%
    17:00 -9°C° 0 mm 0 mps 597 mmHg 81%
    18:00 -13°C° 0 mm 0 mps 596 mmHg 84%
    19:00 -13°C° 0 mm 0 mps 596 mmHg 84%
    20:00 -13°C° 0 mm 1 mps 596 mmHg 84%
    21:00 -13°C° 0 mm 1 mps 596 mmHg 83%
    22:00 -13°C° 0 mm 1 mps 596 mmHg 83%
    23:00 -13°C° 0 mm 1 mps 596 mmHg 83%

    20 January, Friday

    Time Temperature Precipitation Wind Pressure Humidity
    00:00 -13°C° 0 mm 0 mps 596 mmHg 83%
    01:00 -13°C° 0 mm 0 mps 596 mmHg 83%
    02:00 -13°C° 0 mm 0 mps 596 mmHg 83%
    03:00 -13°C° 0 mm 0 mps 596 mmHg 83%
    04:00 -13°C° 0 mm 0 mps 596 mmHg 83%
    05:00 -14°C° 0 mm 0 mps 596 mmHg 84%
    06:00 -14°C° 0 mm 0 mps 596 mmHg 84%
    07:00 -12°C° 0 mm 0 mps 598 mmHg 81%
    08:00 -10°C° 0 mm 0 mps 599 mmHg 79%
    09:00 -9°C° 0 mm 1 mps 600 mmHg 76%
    10:00 -7°C° 0 mm 1 mps 601 mmHg 73%
    11:00 -4°C° 0 mm 1 mps 601 mmHg 69%
    12:00 -2°C° 0 mm 1 mps 602 mmHg 66%
    13:00 -3°C° 0 mm 1 mps 601 mmHg 69%
    14:00 -3°C° 0 mm 1 mps 601 mmHg 71%
    15:00 -3°C° 0 mm 1 mps 601 mmHg 74%
    16:00 -6°C° 0 mm 1 mps 600 mmHg 78%
    17:00 -9°C° 0 mm 0 mps 599 mmHg 81%
    18:00 -11°C° 0 mm 0 mps 597 mmHg 85%
    19:00 -12°C° 0 mm 0 mps 598 mmHg 85%
    20:00 -12°C° 0 mm 0 mps 598 mmHg 85%
    21:00 -12°C° 0 mm 0 mps 598 mmHg 85%
    22:00 -13°C° 0 mm 0 mps 598 mmHg 85%
    23:00 -13°C° 0 mm 0 mps 597 mmHg 85%

    21 January, Saturday

    Time Temperature Precipitation Wind Pressure Humidity
    00:00 -13°C° 0 mm 0 mps 597 mmHg 85%
    01:00 -13°C° 0 mm 0 mps 597 mmHg 85%
    02:00 -13°C° 0 mm 0 mps 597 mmHg 85%
    03:00 -13°C° 0 mm 0 mps 597 mmHg 85%
    04:00 -14°C° 0 mm 0 mps 597 mmHg 85%
    05:00 -14°C° 0 mm 0 mps 597 mmHg 85%
    06:00 -14°C° 0 mm 0 mps 597 mmHg 85%
    07:00 -13°C° 0 mm 0 mps 598 mmHg 83%
    08:00 -11°C° 0 mm 0 mps 599 mmHg 81%
    09:00 -10°C° 0 mm 0 mps 600 mmHg 79%
    10:00 -8°C° 0 mm 0 mps 600 mmHg 75%
    11:00 -6°C° 0 mm 0 mps 601 mmHg 70%
    12:00 -4°C° 0 mm 1 mps 601 mmHg 66%
    13:00 -4°C° 0 mm 1 mps 601 mmHg 68%
    14:00 -4°C° 0 mm 1 mps 600 mmHg 70%
    15:00 -4°C° 0 mm 1 mps 600 mmHg 71%
    16:00 -8°C° 0 mm 1 mps 599 mmHg 76%
    17:00 -10°C° 0 mm 0 mps 598 mmHg 81%
    18:00 -13°C° 0 mm 0 mps 597 mmHg 86%
    19:00 -13°C° 0 mm 0 mps 597 mmHg 86%
    20:00 -13°C° 0 mm 0 mps 597 mmHg 85%
    21:00 -14°C° 0 mm 0 mps 597 mmHg 84%
    22:00 -14°C° 0 mm 1 mps 597 mmHg 84%
    23:00 -13°C° 0 mm 1 mps 598 mmHg 83%

    22 January, Sunday

    Time Temperature Precipitation Wind Pressure Humidity
    00:00 -13°C° 0 mm 1 mps 598 mmHg 82%
    01:00 -13°C° 0 mm 1 mps 598 mmHg 82%
    02:00 -13°C° 0 mm 1 mps 599 mmHg 81%
    03:00 -13°C° 0 mm 1 mps 599 mmHg 80%
    04:00 -13°C° 0 mm 1 mps 599 mmHg 80%
    05:00 -13°C° 0 mm 1 mps 600 mmHg 79%
    06:00 -13°C° 0 mm 1 mps 600 mmHg 79%
    07:00 -12°C° 0 mm 1 mps 601 mmHg 77%
    08:00 -11°C° 0 mm 1 mps 602 mmHg 75%
    09:00 -10°C° 0 mm 1 mps 603 mmHg 73%
    10:00 -8°C° 0 mm 1 mps 603 mmHg 70%
    11:00 -8°C° 0 mm 2 mps 603 mmHg 67%
    12:00 -7°C° 0 mm 2 mps 604 mmHg 64%
    13:00 -7°C° 0 mm 2 mps 604 mmHg 67%
    14:00 -7°C° 0 mm 2 mps 604 mmHg 69%
    15:00 -7°C° 0 mm 2 mps 603 mmHg 71%
    16:00 -8°C° 0 mm 1 mps 603 mmHg 75%
    17:00 -11°C° 0 mm 1 mps 602 mmHg 79%
    18:00 -13°C° 0 mm 1 mps 601 mmHg 83%
    19:00 -14°C° 0 mm 1 mps 601 mmHg 83%
    20:00 -14°C° 0 mm 1 mps 602 mmHg 83%
    21:00 -14°C° 0 mm 1 mps 602 mmHg 82%
    22:00 -14°C° 0 mm 1 mps 602 mmHg 83%
    23:00 -14°C° 0 mm 1 mps 602 mmHg 83%
    Show more